Bakersfield, CA

6:21 PM PDT on July 22, 2017 (GMT -0700)
Meadows

Weather History for KBFL - July, 2014

Change the Weather History Date:

Monday, July 28, 2014

  Actual Average Record
Temperature  
Mean Temperature 91 °F 84 °F  
Max Temperature 101 °F 98 °F 118 °F (1908)
Min Temperature 80 °F 71 °F 50 °F (1914)
Degree Days  
Heating Degree Days 0    
Month to date heating degree days 0  
Since 1 June heating degree days 0  
Since 1 July heating degree days 0  
Cooling Degree Days 26    
Month to date cooling degree days 618  
Year to date cooling degree days 1573  
Since 1 June cooling degree days 1121  
Growing Degree Days 41 (Base 50)    
Moisture  
Dew Point 40 °F    
Average Humidity 18    
Maximum Humidity 26    
Minimum Humidity 10    
Precipitation  
Precipitation T in 0.00 in 0.00 in (2017)
Month to date precipitation T 0.00  
Year to date precipitation 1.34 4.39  
Since 1 July precipitation T  
Snow  
Snow 0.00 in - - ()
Month to date snowfall 0.0  
Since 1 June snowfall 0.0  
Since 1 July snowfall 0.0  
Snow Depth 0.00 in    
Sea Level Pressure  
Sea Level Pressure 29.95 in    
Wind  
Wind Speed 6 mph (NNW)    
Max Wind Speed 18 mph    
Max Gust Speed 22 mph    
Visibility 10 miles    
Events      
T = Trace of Precipitation, MM = Missing Value Source: NWS Daily Summary

Daily Weather History Graph

Daily Weather History Graph

Search for Another Location

Airport or City:

Trip Planner

Search our weather history database for the weather conditions in past years. The results will help you decide how hot, cold, wet, or windy it might be!

Date:

Astronomy

Jul. 28, 2014 Rise Set
Actual Time 6:01 AM PDT 8:03 PM PDT
Civil Twilight 5:33 AM PDT 8:31 PM PDT
Nautical Twilight 4:59 AM PDT 9:05 PM PDT
Astronomical Twilight 4:22 AM PDT 9:42 PM PDT
Moon 7:42 AM PDT (7/28) 8:54 PM PDT (7/28)
Length of Visible Light 14h 57m
Length of Day
14h 01m
Waxing Crescent, 3% of the Moon is Illuminated
Jul 28
Waxing Crescent
Aug 3
First Quarter
Aug 10
Full
Aug 17
Last Quarter
Aug 25
New

Hourly Weather History & Observations

Time (PDT) Temp. Dew Point Humidity Pressure Visibility Wind Dir Wind Speed Gust Speed Precip Events Conditions
12:54 AM 84.2 °F 42.8 °F 23% 29.94 in 10.0 mi NNW 4.6 mph - N/A   Clear
1:54 AM 82.9 °F 43.0 °F 24% 29.92 in 10.0 mi Calm Calm - N/A   Clear
2:54 AM 84.0 °F 43.0 °F 24% 29.93 in 10.0 mi Calm Calm - N/A   Clear
3:54 AM 84.0 °F 45.0 °F 25% 29.93 in 10.0 mi ESE 3.5 mph - N/A   Clear
4:54 AM 84.0 °F 45.0 °F 25% 29.94 in 10.0 mi Calm Calm - N/A   Clear
5:54 AM 82.9 °F 44.1 °F 25% 29.94 in 10.0 mi ENE 4.6 mph - N/A   Clear
6:54 AM 84.9 °F 43.0 °F 23% 29.95 in 10.0 mi ENE 3.5 mph - N/A   Clear
7:54 AM 87.1 °F 41.0 °F 20% 29.97 in 10.0 mi Calm Calm - N/A   Clear
8:54 AM 88.0 °F 43.0 °F 21% 29.98 in 10.0 mi South 3.5 mph - N/A   Clear
9:54 AM 91.0 °F 43.0 °F 19% 29.98 in 10.0 mi WSW 3.5 mph - N/A   Clear
10:54 AM 93.0 °F 42.1 °F 17% 29.98 in 10.0 mi NNW 6.9 mph - N/A   Clear
11:54 AM 95.0 °F 39.0 °F 14% 29.98 in 10.0 mi NW 6.9 mph - N/A   Clear
12:54 PM 96.8 °F 44.6 °F 17% 29.99 in 10.0 mi NW 10.4 mph - N/A   Clear
1:54 PM 97.0 °F 46.9 °F 18% 29.96 in 10.0 mi NNW 10.4 mph - N/A   Clear
2:54 PM 96.1 °F 30.9 °F 10% 29.96 in 10.0 mi North 17.3 mph - N/A   Clear
3:54 PM 97.0 °F 30.0 °F 9% 29.94 in 10.0 mi North 15.0 mph - N/A   Partly Cloudy
4:54 PM 98.1 °F 34.0 °F 11% 29.94 in 10.0 mi North 9.2 mph - 0.00 in   Partly Cloudy
5:54 PM 100.9 °F 36.0 °F 11% 29.93 in 10.0 mi North 12.7 mph - N/A   Clear
6:12 PM 98.1 °F 41.0 °F 14% 29.95 in 10.0 mi NW 12.7 mph - N/A   Clear
6:54 PM 97.0 °F 41.0 °F 14% 29.92 in 10.0 mi NW 10.4 mph - N/A   Clear
7:54 PM 93.9 °F 42.1 °F 17% 29.93 in 10.0 mi WNW 4.6 mph - N/A   Clear
8:54 PM 91.0 °F 39.9 °F 17% 29.94 in 10.0 mi Calm Calm - N/A   Clear
9:54 PM 89.1 °F 35.1 °F 15% 29.96 in 10.0 mi Calm Calm - N/A   Clear
10:54 PM 84.9 °F 35.1 °F 17% 29.96 in 10.0 mi NE 5.8 mph - N/A   Clear
11:54 PM 82.9 °F 44.1 °F 25% 29.96 in 10.0 mi NW 3.5 mph - N/A   Clear